Location: Gu�tanj
(46.5431°N, 14.9692°E)
Time: 18:31:45
(UTC+00:00)

Meteor 2-20 Rocket - Pass Details

Date: 03 March 2021
Orbit: 941 x 958 km, 82.5° (Epoch: 15 April)

Event Time Altitude Azimuth Distance (km) Brightness Sun altitude
Rises 19:41:05 0° 350° (N) 3,622 7.9 -29.7°
Reaches altitude 10° 19:43:34 10° 350° (N) 2,675 7.2 -30.1°
Enters shadow 19:49:09 75° 330° (NNW) 984 4.5 -31.0°
